This demonstration page uses our WeatherBlox Daily Observations layout. Learn more.

39.01783, -85.05884

Hourly Observations for July 16, 2019

Temp ( °F °C ) Dew Point ( °F °C ) Humidity (%) Winds ( mph kmh ) Pressure ( in mb ) Visibility ( mi km ) Precip ( " mm )
12:52 am 00:52 Cloudy 73 22.8 69 20.6 87 87 S 6 9 30.03 1017 10 16.09344 0 0
1:52 am 01:52 Cloudy 73 22.8 69 20.6 87 87 S 6 9 30.03 1017 10 16.09344 0 0
2:52 am 02:52 Cloudy with Light Rain 73 22.8 69 20.6 87 87 S 5 7 30.03 1017 10 16.09344 0.001 0.001
3:52 am 03:52 Cloudy 73 22.8 70 21.1 90 90 S 5 7 30.03 1017 10 16.09344 0.001 0.001
4:52 am 04:52 Cloudy 72 22.2 69 20.6 91 91 S 7 11 30.03 1017 10 16.09344 0 0
5:52 am 05:52 Cloudy 73 22.8 69 20.6 87 87 S 6 9 30.03 1017 10 16.09344 0 0
6:52 am 06:52 Cloudy 73 22.8 69 20.6 87 87 S 7 11 30.03 1017 10 16.09344 0 0
7:52 am 07:52 Cloudy 75 23.9 69 20.6 82 82 S 8 13 30.03 1017 10 16.09344 0 0
8:52 am 08:52 Cloudy 77 25 69 20.6 77 77 S 7 11 30.03 1017 10 16.09344 0 0
9:52 am 09:52 Mostly Cloudy 79 26.1 70 21.1 74 74 SSW 12 19 30.03 1017 10 16.09344 0 0
10:52 am 10:52 Mostly Cloudy 81 27.2 71 21.7 72 72 S 14 22 30 1016 10 16.09344 0 0
11:52 am 11:52 Mostly Cloudy 83 28.3 70 21.1 65 65 SSW 16 26 30 1016 10 16.09344 0 0
12:52 pm 12:52 Mostly Cloudy 85 29.4 70 21.1 61 61 SSW 16 26 30 1016 10 16.09344 0 0
1:52 pm 13:52 Mostly Cloudy 88 31.1 69 20.6 54 54 S 18 30 29.97 1015 10 16.09344 0 0
2:52 pm 14:52 Mostly Cloudy 88 31.1 69 20.6 54 54 SSW 14 22 29.94 1014 10 16.09344 0 0
3:52 pm 15:52 Mostly Cloudy 87 30.6 69 20.6 55 55 SW 10 17 29.94 1014 10 16.09344 0.001 0.001
4:52 pm 16:52 Mostly Cloudy 84 28.9 69 20.6 61 61 SSW 12 19 29.91 1013 10 16.09344 0 0
5:52 pm 17:52 Mostly Cloudy 87 30.6 71 21.7 59 59 SSW 14 22 29.91 1013 10 16.09344 0 0
6:52 pm 18:52 Cloudy 86 30 69 20.6 57 57 SW 12 19 29.91 1013 10 16.09344 0 0
7:52 pm 19:52 Cloudy 85 29.4 68 20 57 57 SSW 6 9 29.91 1013 10 16.09344 0 0
8:52 pm 20:52 Cloudy 84 28.9 68 20 59 59 S 7 11 29.91 1013 10 16.09344 0 0
9:52 pm 21:52 Cloudy with Light Rain 79 26.1 70 21.1 74 74 SW 12 19 29.91 1013 6 9.656064 0.02 0.508
9:58 pm 21:58 Cloudy with Heavy Rain 77 25 71 21.7 82 82 WSW 10 17 29.94 1014 2 3.218688 0.05 1.27
10:05 pm 22:05 Cloudy with Light Rain 75 23.9 71 21.7 88 88 W 5 7 29.94 1014 6 9.656064 0.13 3.302
10:10 pm 22:10 Cloudy 75 23.9 71 21.7 88 88 VRB 3 6 29.94 1014 10 16.09344 0.13 3.302
10:52 pm 22:52 Cloudy with Rain 75 23.9 71 21.7 88 88 SW 14 22 29.94 1014 5 8.04672 0.15 3.81
11:20 pm 23:20 Cloudy with Light Rain 74 23.3 70 21.1 88 88 S 7 11 29.94 1014 10 16.09344 0.02 0.508
11:52 pm 23:52 Cloudy 73 22.8 70 21.1 90 90 S 8 13 29.91 1013 10 16.09344 0.02 0.508

Powered by AerisWeather